Location: Plymouth Village
(34.0436°N, 117.1717°W)
Time: 03:30:11
(UTC+00:00)

COSMO-SKYMED 1 - Pass Details

Date: 10 September 2024
Orbit: 621 x 623 km, 97.9° (Epoch: 06 October)

Event Time Altitude Azimuth Distance (km) Brightness Sun altitude
Rises 12:53:55 0° 159° (SSE) 2,890 6.1 -8.0°
Reaches altitude 10° 12:56:06 10° 156° (SSE) 1,988 5.3 -7.6°
Maximum altitude 13:00:23 63° 76° (ENE) 696 3.2 -6.7°
Drops below altitude 10° 13:04:41 10° 355° (N) 1,999 5.2 -5.8°
Sets 13:06:53 0° 352° (N) 2,909 6.0 -5.4°
